Location: Cochrane
(49.0650°N, 81.0299°W)
Time: 21:27:31
(UTC-04:00)

ISS - Visible Passes

Search period start: 24 May 2024 00:00
Search period end: 03 June 2024 00:00
Orbit: 411 x 416 km, 51.6° (Epoch: 24 May)

Date Brightness Start Highest point End Pass type
(mag) Time Alt. Az. Time Alt. Az. Time Alt. Az.
24 May -3.6 21:52:38 10° WNW 21:55:59 66° SSW 21:59:18 10° ESE visible
24 May -1.6 23:30:15 10° WSW 23:32:11 15° SW 23:32:23 14° SW visible
25 May -2.1 22:40:56 10° W 22:43:37 22° SW 22:45:25 15° S visible
26 May -2.6 21:52:35 10° W 21:55:42 33° SW 21:58:46 10° SSE visible
28 May -1.4 21:56:01 10° W 21:58:07 15° SW 22:00:12 10° S visible
